Groton, CT

10:53 PM EDT on July 27, 2017 (GMT -0400)
Groton-New London

Weather History for KGON - April, 2014

Change the Weather History Date:

Tuesday, April 22, 2014

  Actual Average Record
Temperature  
Mean Temperature 47 °F -  
Max Temperature 57 °F 59 °F 79 °F (1960)
Min Temperature 37 °F 40 °F 31 °F (1975)
Degree Days  
Heating Degree Days 18    
Moisture  
Dew Point 43 °F    
Average Humidity 90    
Maximum Humidity 100    
Minimum Humidity 67    
Precipitation  
Precipitation 0.00 in - - ()
Sea Level Pressure  
Sea Level Pressure 29.70 in    
Wind  
Wind Speed 2 mph (South)    
Max Wind Speed 12 mph    
Max Gust Speed -    
Visibility 6 miles    
Events Fog , Rain    
Averages and records for this station are not official NWS values.
T = Trace of Precipitation, MM = Missing Value Source: NWS Daily Summary

Daily Weather History Graph

Daily Weather History Graph

Search for Another Location

Airport or City:

Trip Planner

Search our weather history database for the weather conditions in past years. The results will help you decide how hot, cold, wet, or windy it might be!

Date:

Astronomy

Apr. 22, 2014 Rise Set
Actual Time 5:58 AM EDT 7:35 PM EDT
Civil Twilight 5:28 AM EDT 8:05 PM EDT
Nautical Twilight 4:53 AM EDT 8:40 PM EDT
Astronomical Twilight 4:15 AM EDT 9:18 PM EDT
Moon 1:49 AM EDT (4/22) 12:29 PM EDT (4/22)
Length of Visible Light 14h 36m
Length of Day
13h 37m
Last Quarter, 46% of the Moon is Illuminated
Apr 22
Last Quarter
Apr 29
New
May 6
First Quarter
May 14
Full
May 21
Last Quarter

Hourly Weather History & Observations

Time (EDT) Temp. Dew Point Humidity Pressure Visibility Wind Dir Wind Speed Gust Speed Precip Events Conditions
12:56 AM 43.0 °F 41.0 °F 93% 29.88 in 8.0 mi Calm Calm - N/A   Clear
1:56 AM 41.0 °F 39.9 °F 96% 29.85 in 4.0 mi Calm Calm - N/A   Clear
2:56 AM 41.0 °F 39.9 °F 96% 29.83 in 6.0 mi Calm Calm - N/A   Clear
3:56 AM 39.9 °F 39.0 °F 97% 29.81 in 5.0 mi Calm Calm - N/A   Clear
4:01 AM 39.2 °F 39.2 °F 100% 29.81 in 1.8 mi Calm Calm - N/A   Clear
4:04 AM 39.2 °F 39.2 °F 100% 29.81 in 0.8 mi Calm Calm - N/A   Mist
4:18 AM 39.2 °F 39.2 °F 100% 29.80 in 0.5 mi Calm Calm - N/A Fog Fog
4:26 AM 39.2 °F 39.2 °F 100% 29.80 in 1.2 mi Calm Calm - N/A   Partly Cloudy
4:29 AM 39.2 °F 39.2 °F 100% 29.80 in 3.0 mi Calm Calm - N/A   Partly Cloudy
4:56 AM 39.0 °F 39.0 °F 100% 29.79 in 7.0 mi Calm Calm - N/A   Clear
5:34 AM 39.2 °F 39.2 °F 100% 29.78 in 2.5 mi Calm Calm - N/A   Clear
5:49 AM 39.2 °F 39.2 °F 100% 29.78 in 5.0 mi Calm Calm - N/A   Clear
5:56 AM 37.9 °F 37.9 °F 100% 29.78 in 4.0 mi Calm Calm - N/A   Clear
6:06 AM 39.2 °F 37.4 °F 93% 29.78 in 1.8 mi Calm Calm - N/A   Clear
6:16 AM 39.2 °F 39.2 °F 100% 29.78 in 3.0 mi Calm Calm - N/A   Clear
6:56 AM 39.9 °F 39.0 °F 97% 29.77 in 5.0 mi Calm Calm - N/A   Clear
7:56 AM 46.9 °F 46.0 °F 97% 29.75 in 7.0 mi Calm Calm - N/A   Clear
8:56 AM 51.1 °F 45.0 °F 80% 29.74 in 8.0 mi WSW 9.2 mph - N/A   Clear
9:56 AM 53.1 °F 45.0 °F 74% 29.72 in 8.0 mi SW 11.5 mph - N/A   Clear
10:56 AM 57.0 °F 46.0 °F 67% 29.70 in 8.0 mi SSW 10.4 mph - N/A   Clear
11:56 AM 55.0 °F 46.0 °F 72% 29.68 in 8.0 mi South 6.9 mph - N/A   Clear
12:56 PM 55.9 °F 46.9 °F 72% 29.65 in 6.0 mi South 9.2 mph - N/A   Haze
1:56 PM 55.9 °F 46.9 °F 72% 29.62 in 8.0 mi South 11.5 mph - N/A   Clear
2:56 PM 55.9 °F 46.9 °F 72% 29.61 in 6.0 mi South 8.1 mph - N/A   Haze
3:56 PM 55.9 °F 48.0 °F 75% 29.59 in 8.0 mi South 9.2 mph - N/A   Clear
4:56 PM 55.0 °F 48.0 °F 77% 29.57 in 8.0 mi South 11.5 mph - N/A   Clear
5:56 PM 52.0 °F 46.9 °F 83% 29.57 in 7.0 mi South 8.1 mph - N/A   Clear
6:56 PM 50.0 °F 46.9 °F 89% 29.56 in 7.0 mi SSE 4.6 mph - N/A   Overcast
7:56 PM 51.1 °F 48.0 °F 89% 29.54 in 8.0 mi South 11.5 mph - 0.00 in Rain Light Rain
8:56 PM 50.0 °F 48.0 °F 93% 29.53 in 8.0 mi South 3.5 mph - N/A   Overcast
9:56 PM 48.9 °F 46.9 °F 93% 29.53 in 7.0 mi SSE 3.5 mph - 0.00 in   Overcast
10:56 PM 48.9 °F 48.0 °F 97% 29.51 in 7.0 mi Calm Calm - 0.00 in   Mostly Cloudy
11:56 PM 48.0 °F 48.0 °F 100% 29.50 in 5.0 mi Calm Calm - N/A   Partly Cloudy